Location: Unspecified
(0.0000°N, 0.0000°E)
Time: 03:11:44
(UTC+00:00)

CORVUS BC2 - Pass Details

Date: 17 February 2026
Orbit: 540 x 560 km, 97.4° (Epoch: 6 March)

Event Time Altitude Azimuth Distance (km) Brightness Sun altitude
Rises 04:26:37 0° 171° (S) 2,747 ? -26.2°
Reaches altitude 10° 04:28:45 10° 173° (S) 1,849 ? -25.7°
Enters shadow 04:31:05 34° 178° (S) 933 ? -25.1°
